PDT,Max TemperatureF,Mean TemperatureF,Min TemperatureF,Max Dew PointF,MeanDew PointF,Min DewpointF,Max Humidity, Mean Humidity, Min Humidity, Max Sea Level PressureIn, Mean Sea Level PressureIn, Min Sea Level PressureIn, Max VisibilityMiles, Mean VisibilityMiles, Min VisibilityMiles, Max Wind SpeedMPH, Mean Wind SpeedMPH, Max Gust SpeedMPH,PrecipitationIn, CloudCover, Events, WindDirDegrees
2013-4-1,64,57,50,50,49,46,96,78,60,30.15,30.11,30.03,10,10,10,8,2,10,T,7,,201
2013-4-2,75,61,47,49,46,43,93,64,35,30.16,30.10,30.02,10,10,10,9,3,12,0.00,0,,341
2013-4-3,73,60,47,55,50,45,89,67,44,30.13,30.04,29.94,10,10,10,7,2,9,0.00,0,,21
2013-4-4,61,58,54,54,52,50,93,83,72,30.04,29.97,29.87,10,10,4,29,9,43,0.18,7,Rain-Thunderstorm,194
2013-4-5,63,57,51,54,50,48,96,78,60,30.13,30.09,30.05,10,10,5,13,5,15,T,7,Rain,216
2013-4-6,67,60,53,53,50,48,93,73,52,30.14,30.07,30.00,10,10,10,18,7,23,0.05,7,Rain,197
2013-4-7,66,60,53,53,45,36,86,65,44,30.03,29.90,29.73,10,10,10,24,12,29,T,6,,207
2013-4-8,66,56,46,41,27,22,82,50,18,30.11,29.97,29.77,10,10,10,18,9,32,T,1,,358
2013-4-9,75,61,47,42,33,29,53,38,22,30.19,30.14,30.08,10,10,10,17,5,23,0.00,0,,343
2013-4-10,82,66,50,49,44,40,71,51,30,30.18,30.08,29.96,10,10,10,10,5,15,0.00,0,,330
2013-4-11,77,67,56,41,31,26,46,31,15,30.07,29.96,29.83,10,10,10,22,12,29,0.00,0,,350
2013-4-12,82,71,59,36,32,29,35,25,15,29.89,29.82,29.73,10,10,10,15,9,21,0.00,0,,336
2013-4-13,75,61,47,44,35,25,80,49,18,29.88,29.81,29.76,10,10,10,14,4,17,0.00,0,,287
2013-4-14,71,60,49,33,30,25,42,33,24,29.90,29.82,29.71,10,10,10,15,7,22,0.00,1,,320
2013-4-15,62,54,46,33,28,23,53,38,23,29.99,29.85,29.80,10,10,10,22,8,32,T,2,,306
2013-4-16,66,55,44,30,25,17,45,31,16,30.25,30.12,30.01,10,10,10,20,8,25,0.00,1,,359
2013-4-17,69,53,37,32,26,18,76,46,15,30.36,30.29,30.21,10,10,10,23,7,29,0.00,0,,2
2013-4-18,79,62,44,47,35,30,60,40,19,30.30,30.24,30.14,10,10,10,24,6,30,0.00,0,,354
2013-4-19,82,65,47,47,42,36,80,52,23,30.22,30.14,30.05,10,10,10,16,3,20,0.00,0,,317
2013-4-20,82,69,56,38,32,25,40,29,17,30.17,30.07,29.94,10,10,10,21,10,29,0.00,0,,347
2013-4-21,86,73,60,41,35,29,36,26,16,30.06,30.00,29.91,10,10,10,21,9,26,0.00,0,,356
2013-4-22,84,74,64,39,32,18,40,27,13,30.04,30.00,29.92,10,10,10,28,14,32,0.00,0,,13
2013-4-23,84,72,60,30,20,14,18,14,9,30.06,29.94,29.80,10,10,10,26,15,36,0.00,0,,359
2013-4-24,86,75,64,29,21,12,20,14,8,29.96,29.87,29.77,10,10,10,22,12,26,0.00,0,,3
2013-4-25,82,62,42,46,40,31,70,47,23,30.06,29.95,29.87,10,10,10,15,3,18,0.00,0,,144
2013-4-26,86,67,48,54,48,44,80,52,23,30.16,30.11,30.05,10,10,10,12,1,15,0.00,0,,154
2013-4-27,90,72,53,55,50,39,89,53,17,30.17,30.09,29.99,10,10,8,13,2,15,0.00,0,,133
2013-4-28,92,73,54,53,41,34,72,43,14,30.03,29.95,29.85,10,10,10,15,5,20,0.00,0,,340
2013-4-29,84,75,66,43,39,34,34,28,22,29.93,29.87,29.77,10,10,10,24,11,32,0.00,0,,356
2013-4-30,79,68,57,34,21,13,29,20,10,30.11,29.94,29.84,10,10,10,24,13,33,0.00,0,,353